Retour au catalogue

STARLINK-11193

ActifCommunicationsVLEO
NORAD 60195·PAYLOAD·🇺🇸 United States

Lancé Jul 3, 2024 depuis Cape Canaveral Space Force Station

Loading…

Prochains Passages (prochaines 24 heures)

TLE

FraisSource: CelesTrak SupGP

Époque: Sep 14, 2026, 20:46 UTC

1 60195C 24124N   26257.86576389 -.00067847  00000+0 -55887-3 0  2574
2 60195  53.1561 308.6559 0001120  97.4253  12.6240 15.69743508    18

Suivez STARLINK-11193 en temps réel avec AllMySat

Download on the App Store